Погода в Шымкенте

Поиск расширенной информации на нашем сайте:

Полезная информация:

Новости сайта



02.01.2020
Опубликован Долгосрочный прогноз погоды по городам России и ближнего зарубежья на январь 2020 года.
Карты: Прогноз на январь и февраль 2020 года, Сравнение прогнозируемой аномалии приземной температуры воздуха на январь 2020 года по разным моделям.




Погода в Шымкенте - сегодня

Время (UTC), дата Ветер
(°,м/с) 
Видим.   Явления Облачность Т
(°С)
Тd
(°С)
f(%) Тe
(°С)
Pmin
(гПа)
dP
(гПа)
Po
(мм)
O2
(г/м3)
Тmin Tmax R s Состояние
почвы
06 05.04.20 280 (З) 4000 м  слаб. ливневой дождь  10/10 600 м кучево-дожд. 
[Cb cap]
+13.5 +10.4 82 +18  1020.6  1.6  713  272  +10.2    0.0     
09 05.04.20 270 (З) 4000 м  в посл. час ливневой дождь  10/10 600 м кучево-дожд. 
[Cb cap]
+13.1 +10.4 84 +17  1020.3  -0.3  713  272           
12 05.04.20 тихо ()   20000 м  {ливн. осадки}  9/6 600 м кучево-дожд., средняя, верхняя 
[Cb cap|Ac trans|Ci ing]
+16.3 +11.3 72 +20  1018.7  -0.8  712  269           
15 05.04.20 тихо ()   н/о  дымка  9/6 600 м средняя, верхняя 
[Sc|Ac trans|Ci fib]
+13.1 +11.2 88 +17  1019.7  0.2  712  272    +16.7     
18 05.04.20 090 (В) н/о  дымка  6/4 600 м средняя 
[Sc|Ac trans]
+10.7 +9.5 92 +14  1020.4  712  274    +16.7     
21 05.04.20 тихо ()   н/о  дымка  ясно 
+8.5 +8.1 97 +9  1019.6  -1.2  711  276           
00 06.04.20 110 (В) н/о  дымка  ясно 
+8.4 +8.2 99 +9  1019.4  -0.3  711  276           
03 06.04.20 050 (СВ) 20000 м    ясно 
+11.7 +8 78 +13  1018  -0.5  711  273           
06 06.04.20 360 (С) 20000 м    4/0 верхняя 
[Ci fib]
+17.8 +10.7 63 +22  1016.5  0.1  711  267  +7.2         
09 06.04.20 360 (С) 20000 м    3/3 600 м 
[Cu med, cong]
+20.5 +8.5 46 +21  1014.6  -1.4  710  264           
12 06.04.20 300 (СЗ) 20000 м    8/3 600 м верхняя 
[Sc|Ci fib]
+20.7 +7.3 42 +21  1013.9  -0.5  709  264           
15 06.04.20 280 (З) н/о    8/0 средняя, верхняя 
[Ac trans|Ci fib]
+16.3 +6.2 51 +18  1015  -0.1  709  269    +21       
18 06.04.20 280 (З) н/о    6/0 верхняя 
[Ci fib]
+13.1 +3.6 52 +14  1015.5  -0.4  709  272    +21       
21 06.04.20 280 (З) н/о    8/0 средняя, верхняя 
[Ac trans|Ci fib]
+8.9 +5.8 81 +10  1015.4  -1  708  275           
00 07.04.20 260 (З) н/о    10/8 600 м средняя 
[Sc|Ac trans]
+12.5 +8.2 75 +13  1014.7  0.2  709  271           
03 07.04.20 210 (ЮЗ) 4000 м  слаб. ливневой дождь  10/10 600 м кучево-дожд. 
[Cb cap]
+14.1 +10 76 +17  1016.3  1.9  710  270      0.0     
06 07.04.20 200 (Ю) 4000 м  в посл. час ливневой дождь  10/10 600 м кучево-дожд. 
[Cb cap]
+13.7 +12 89 +19  1017.1  0.8  711  270  +8.7    0.0     
09 07.04.20 260 (З) 20000 м  {ливн. осадки}  10/10 600 м кучево-дожд. 
[Cb cap]
+13.9 +10.3 79 +16  1017.9  0.7  711  271           
12 07.04.20 280 (З) 4000 м  слаб. ливневой дождь  10/10 600 м кучево-дожд. 
[Cb cap]
+10.3 +8.6 89 +11  1020.2  1.3  712  275           
15 07.04.20 290 (З) н/о  ливневой дождь  10/10 600 м кучево-дожд. 
[Cb cap]
+7.8 +7 95 +9  1023  714  278    +16  15     
18 07.04.20 тихо ()   н/о  слаб. ливневой дождь  10/10 600 м кучево-дожд. 
[Cb cap]
+7 +6.1 94 +7  1023.9  0.5  684  268    +16  15     
21 07.04.20 200 (Ю) н/о  слаб. ливневой дождь  10/10 600 м кучево-дожд. 
[Cb cap]
+5.7 +5 95 +7  1023.9  -0.3  714  281           
00 08.04.20 350 (С) н/о  слаб. ливневой снег  10/10 600 м кучево-дожд. 
[Cb cap]
+0.7 +0.4 98 +1  1025.8  0.4  714  287           
03 08.04.20 тихо ()   4000 м  слаб. ливневой снег  10/10 600 м кучево-дожд. 
[Cb cap]
+1 +0.7 98 +1  1025.5  -0.2  714  286      16     
06 08.04.20 тихо ()   4000 м  слаб. ливневой снег  10/10 600 м кучево-дожд. 
[Cb cap]
+1.2 +0.7 96 +1  1026.3  0.8  714  286  +0.5    16     
Время (UTC), дата Ветер
(°,м/с) 
Видим.   Явления Облачность Т
(°С)
Тd
(°С)
f(%) Тe
(°С)
Pmin
(гПа)
dP
(гПа)
Po
(мм)
O2
(г/м3)
Тmin Tmax R s Состояние
почвы

Для получения пояснительной информации подведите курсор к названию столбца.

ПОГОДА в Шымкенте - архив

Всё, что Вы хотите узнать о погоде в Шымкенте - удобно и подробно!

Выберите нужную дату (начиная с 1 января 2019* года) и нажмите кнопку "Найти".
Будут отображены архивные сводки погоды по пункту Шымкент, начиная с указанной даты.


Отображать данные в формате CSV (для использования в таблицах Excel)


Внимание! Наш архив погоды предназначен исключительно для личного некоммерческого использования в познавательных целях. Если Вам необходимы официальные справки о состоянии погоды (для производственных, юридических, коммерческих и т.п. целей), обращайтесь в органы Росгидромета.

*Примечание: данная дата относится к архиву по метеостанциям СССР (Россия, СНГ, Балтия).
Архив по метеостанциям Зарубежной Европы и Азии (кроме Китая) хранится 10 дней, по другим регионам земного шара (Китай, Африка, Америка, Австралия, Океания) - 1 день.

Шымкент - район местоположения метеостанции


Название, широта, долгота, высота метеостанции:
Шымкент (город) 42.3°ш. 69.7°д. 604 м над ур. моря [Казахстан]

Дополнительная информация

В oтличие oт бoльшинства пoгoдных сайтoв мы публикуем пoдрoбную метеoинфoрмацию в детальнoм прoфессиoнальнoм фoрмате.

Характеристики температуры и влажнoсти вoздуха измеряются на высoте 2 м в тени вдали oт зданий и деревьев.
Скoрoсть ветра измеряется на высoте 10 м (на урoвне рoста челoвека скoрoсть ветра ниже в 1.5-2 раза). Если метеoстанция нахoдится в гoрoде или в лесу, тo скoрoсть ветра занижена на 2-4 м/с пo сравнению с oткрытым местoм. Скoрoсть ветра над акватoриями крупных рек и oзёр, а также на вершинах хoлмoв на 2-5 м/с выше, чем в oбычных услoвиях.
Атмoсфернoе давление в разных тoчках местнoсти мoжет значительнo oтличаться oт давления на метеoстанции, в зависимoсти oт услoвий рельефа (при пoдъёме на 10 м давление пoнижается примернo на 1 мм рт.ст.).